www.pogodaiklimat.ru

Погода и климат >> Архив погоды >> Россия >> Камчатский край >> Мыс Лопатка


ПОГОДА на Мысе Лопатка

  • Прогноз погоды на Мысе Лопатка
  • Монитор погоды на Мысе Лопатка

АРХИВ ПОГОДЫ на Мысе Лопатка

Время (UTC), дата Ветер
(напр.,м/с)
 
Видим.   Явления Облачность Т
(С)
Тd
(С)
f
(%)
Тe
(С)
Тes
(С)
Комфортность P
(гПа)
Po
(гПа)
Тmin
(С)
Tmax
(С)
R
(мм)
R24
(мм)
S
(см)
15 16.01 ЮВ 22-27
{28}
500 м метель {ливн. осадки} ?/? -0.6 -0.7 99 -12 -12 991.4 985.2
18 16.01 ЮВ 20-25
{28}
500 м сильная метель {ливн. осадки} ?/? -0.1 -0.1 100 -11 -11 984.7 978.5
21 16.01 З 21-25
{26}
500 м сильная метель {ливн. осадки} ?/? -2.4 -2.4 100 -14 -14 983.8 977.6 -2.4 2 26
00 17.01 З 17-22
{27}
20 км позёмок {ливн. осадки} 9/3 600 м
[Sc Ci sp]
-3.7 -6.0 84 -15 -15 989.1 982.8 -4.0
03 17.01 З 17-22
{26}
20 км позёмок 6/6 600 м
[Sc]
-3.5 -8.7 67 -14 -14 992.1 985.7
06 17.01 З 11-14
{22}
20 км позёмок 3/3 600 м
[Sc]
-3.4 -8.7 67 -13 -13 995.0 988.6
09 17.01 З 5
{15}
20 км {метель} 1/1 600 м
[Sc]
-4.0 -10.2 62 -11 -11 996.6 990.2 -2.4 0.0
12 17.01 ЮВ 5 20 км {метель} 3/0
[Ac trans]
-4.3 -10.8 60 -11 -11 996.4 990.0
15 17.01 ЮВ 15-17
{18}
4000 м слаб. ливневой снег {метель} 9/9 300 м
[Cb cap]
-3.4 -4.2 94 -14 -14 992.6 986.2
18 17.01 ЮВ 22-27
{27}
500 м сильная метель {ливн. осадки} ?/? -1.3 -2.2 94 -13 -13 986.2 980.0
21 17.01 Ю 15-20
{32}
20 км {метель} 9/1 600 м
[Sc Ac As]
-0.7 -4.1 78 -10 -10 986.0 979.8 -5.0 0.3 26
00 18.01 Ю 7-11
{21}
20 км {ливн. осадки, метель} 9/1 600 м
[Sc Ac As]
-0.5 -8.4 55 -7 -7 986.3 980.1
03 18.01 ЮВ 5
{15}
4000 м слаб. ливневой снег {метель} 10/10 300 м
[Cb cap]
-3.3 -3.8 96 -10 -10 983.6 977.3
06 18.01 СЗ 4 20 км в посл. час ливневой снег {метель} 8/3 600 м
[Cb cap Ac trans Ci sp]
-4.6 -4.8 99 -11 -11 981.9 975.6
09 18.01 СЗ 5 4000 м слаб. ливневой снег 10/10 300 м
[Cb cap]
-4.1 -4.5 97 -11 -11 981.1 974.9 -0.2 2
12 18.01 Ю 9-12
{12}
20 км позёмок {ливн. осадки} 8/3 600 м
[Sc Ci sp]
-3.0 -3.3 98 -12 -12 981.3 975.0
15 18.01 ЮВ 12-14
{14}
20 км позёмок 9/4 600 м
[Sc Ci sp]
-2.2 -5.5 78 -12 -12 980.7 974.6
18 18.01 СЗ 7
{14}
20 км {метель} 10/10 600 м
[Sc]
-3.7 -5.1 90 -12 -12 981.5 975.2
21 18.01 Ю 2 20 км 10/1 600 м
[Sc Ac As]
-3.5 -8.5 68 -7 -7 983.4 977.1 -4.3 0.9 32
00 19.01 В 5 4000 м слаб. снег 10/4 300 м
[Frnb As op]
-4.6 -5.4 94 -12 -12 984.2 977.9 -4.6
03 19.01 В 3 4000 м слаб. снег 10/5 300 м
[Frnb As op]
-4.0 -4.4 97 -10 -9 982.8 976.5
06 19.01 В 1 2000 м слаб. снег 10/10 200 м
[Frnb Ns]
-4.2 -4.6 97 -7 -7 982.2 975.9
09 19.01 СЗ 3 2000 м снег 10/10 200 м
[Frnb Ns]
-3.4 -3.5 99 -9 -9 981.4 975.1 -3.1 4
12 19.01 СВ 7-10
{11}
20 км позёмок {снег} 10/0
[As trans]
-1.3 -1.4 99 -9 -9 980.9 974.8
15 19.01 СВ 7
{11}
20 км {метель} 9/1 600 м
[Sc Ac As Ci sp]
-1.9 -4.1 85 -9 -9 980.9 974.8
18 19.01 СЗ 7 20 км {метель} 10/10 600 м
[Sc]
-0.5 -1.7 92 -8 -8 980.4 974.3
21 19.01 С 13-15
{17}
20 км позёмок 10/10 600 м
[Sc]
-0.6 -1.2 96 -10 -10 979.8 973.7 -3.4 0.6 41
00 20.01 С 8-11
{15}
10 км слаб. снег {метель} 10/10 300 м
[Frnb Ns]
-0.1 -0.6 96 -8 -8 981.5 975.3
03 20.01 С 6
{11}
4000 м слаб. снег 10/10 300 м
[Frnb Ns]
+0.1 -0.1 99 -7 -7 982.1 975.9
06 20.01 С 4 20 км в посл. час снег 10/5 600 м
[Sc As trans]
-0.1 -0.3 99 -6 -6 982.8 976.6
09 20.01 С 2 20 км 10/0
[Ac As]
-0.2 -0.6 97 -4 -4 982.8 976.6 +0.5 0.8
12 20.01 З 11-13
{13}
20 км 10/3 600 м
[Sc Ac As]
+0.8 -0.4 92 -8 -8 981.8 975.6
15 20.01 СЗ 6
{15}
20 км 10/1 600 м
[Sc Ac As]
-0.2 -1.0 94 -7 -7 982.4 976.2
18 20.01 С 2 20 км 10/1 600 м
[Sc Ac As]
-0.1 -1.0 94 -4 -4 983.8 977.6
21 20.01 ЮВ 8 4000 м слаб. снег 10/10 300 м
[Frnb Ns]
-0.1 -0.6 96 -8 -8 986.9 980.7 -0.4 0.0 39
00 21.01 ЮВ 14-16
{17}
20 км позёмок {снег} 10/1 600 м
[Sc Ac As Cs]
-0.6 -0.9 98 -10 -10 988.9 982.7 -0.6
03 21.01 ЮВ 12-15
{17}
20 км {метель} 8/6 600 м
[Sc Ci fib]
+0.5 -1.4 87 -8 -8 989.3 983.1
06 21.01 ЮВ 11-14
{15}
20 км {метель} 6/3 600 м
[Sc Ci sp]
+0.3 -1.3 89 -8 -8 990.2 984.0
09 21.01 В 11-12
{14}
20 км 3/3 600 м
[Sc]
+0.2 -1.0 92 -8 -8 991.0 984.8 +0.6 0.0
12 21.01 В 7
{14}
20 км 3/1 600 м
[Sc Ac trans]
-0.2 -1.9 88 -7 -7 991.1 984.9
15 21.01 СВ 3 20 км 10/1 600 м
[Sc Ac As]
-1.4 -2.8 90 -6 -6 990.1 983.9
18 21.01 С 8-10
{13}
4000 м слаб. снег {метель} 10/10 300 м
[Frnb Ns]
-1.7 -2.0 98 -10 -10 990.1 983.9
21 21.01 З 3
{10}
20 км {снег, метель} 3/1 600 м
[Sc Ci sp]
-1.8 -1.9 99 -7 -7 990.9 984.7 -2.1 0.2 41
00 22.01 ЮВ 5 50 км {снег, метель} 3/1 600 м
[Sc Ci sp]
-1.5 -2.0 96 -8 -7 994.1 987.9 -2.7
03 22.01 В 5 50 км 8/8 600 м
[Sc Ci sp]
-0.6 -1.4 94 -7 -7 995.1 988.9
09 22.01 В 13-16
{16}
4000 м слаб. ливневой снег {метель} 10/10 300 м
[Cb cap]
-0.2 -0.2 100 -10 -10 997.7 991.5 -0.2 0.7
12 22.01 В 18-22
{22}
20 км сильный позёмок {ливн. осадки} 9/9 600 м
[Sc]
-1.0 -1.3 98 -12 -12 998.8 992.6
15 22.01 В 17-20
{22}
20 км сильный позёмок 3/3 600 м
[Sc]
-1.4 -1.8 97 -12 -12 1000.2 994.0
18 22.01 СВ 7
{20}
20 км {метель} 8/0
[Sc Ci sp]
-2.3 -2.8 96 -10 -10 1002.4 996.1
21 22.01 СВ 7
{12}
50 км 8/8 600 м
[Sc]
-2.3 -3.1 94 -10 -10 1003.7 997.4 -2.8 0.0 43
00 23.01 В 7
{10}
50 км 3/1 600 м
[Sc Ci fib]
-1.7 -6.4 70 -9 -8 1004.1 997.8
03 23.01 СЗ 7 50 км 3/1 600 м
[Sc Ci fib]
-0.3 -3.1 81 -7 -7 1003.3 997.0
06 23.01 СЗ 9-11
{12}
50 км {метель} 1/0 600 м
[Ci sp]
-1.1 -2.4 91 -9 -9 1002.7 996.4
09 23.01 СЗ 15-17
{18}
20 км позёмок 1/1 600 м
[Sc]
0.0 -2.8 81 -9 -9 1000.6 994.4 0.0
12 23.01 СЗ 17-20
{20}
20 км позёмок 3/3 600 м
[Sc]
-0.1 -2.6 83 -10 -10 998.5 992.3

 

Местоположение метеостанции Мыс Лопатка (Камчатский край, Россия): широта 50.87 долгота 156.60 высота над уровнем моря 50 м.

В архиве по умолчанию представлена погода на Мысе Лопатка за последнюю неделю. Архивные данные за месяц целиком и за предыдущие месяцы, начиная с января 2011 года, Вы можете получить, выбрав интересующий диапазон дат из раскрывающегося списка и нажав кнопку "Ввод!".


*Определитесь, кто Вы:
робот инопланетянин человек

Внимание! Время в таблицах - всемирное. Для получения местного времени необходимо прибавить поправку, которая равна 12 ч.

Смотрите также архив погоды в соседних городах и на ближайших метеорологических станциях:

Погода в Северо-Курильске (Сахалинская область, Россия) (41 км)
Погода в Озерной (Камчатский край, Россия) (69 км)
Погода в Водопадной (Камчатский край, Россия) (144 км)
Погода в Большерецке (Камчатский край, Россия) (219 км)
Погода в Начиках (Камчатский край, Россия) (261 км)
Погода в Петропавловск-Камчатском (Камчатский край, Россия) (261 км)
Погода в Петропавловском Маяке (Камчатский край, Россия) (266 км)
Погода в Сосновке (Камчатский край, Россия) (272 км)
Погода в Петропавловск-Камч. 2 (Камчатский край, Россия) (278 км)
Погода в Пущино (Камчатский край, Россия) (380 км)

Пояснения к столбцам:

Ветер - указаны скорость ветра в м/с - средняя за 10 мин, порывы в срок и между сроками (в фигурных скобках) и направление, откуда дует ветер: С - северный, СВ - северо-восточный, В - восточный, ЮВ - юго-восточный, Ю - южный, ЮЗ - юго-западный, З - западный, СЗ - северо-западный.
Видимость - горизонтальная дальность видимости в метрах или километрах. При видимости от 1 до 10 км при отсутствии осадков обычно наблюдается дымка, при ухудшении видимости до 1 км и менее - туман. В сухую погоду видимость может ухудшаться дымом, пылью или мглою.
Явления - указаны атмосферные явления, наблюдавшиеся в срок или в последний час перед сроком; фигурными скобками обозначены явления, наблюдавшиеся между сроками (за 1-3 часа до срока); квадратными скобками обозначены град или гололедные отложения с указанием их диаметра в мм.
Облачность - указаны через наклонную черту общая и нижняя облачность в баллах и высота нижней границы облаков в метрах; квадратными скобками обозначены формы облаков: Ci - перистые, Cs - перисто-слоистые, Cc - перисто-кучевые, Ac - высококучевые, As - высокослоистые, Sc - слоисто-кучевые, Ns - слоисто-дождевые, Cu - кучевые, Cb - кучево-дождевые. Подробнее классификацию облаков см. в Атласе облаков (PDF).
T - Температура воздуха - температура, измеренная на высоте 2 м над землей.
Td - Температура точки росы - температура, при понижении до которой содержащийся в воздухе водяной пар достигнет насыщения.
f - Относительная влажность воздуха - влажноcть воздуха, измеренная на высоте 2 м над землей.
Te - Эффективная температура - температура, которую ощущает одетый по сезону человек в тени. Характеристика душности погоды. При расчете учитывается влияние влажности воздуха и скорости ветра на теплоощущения человека.
Tes - Эффективная температура на солнце - температура, которую ощущает человек, с поправкой на солнечный нагрев. Характеристика знойности погоды. Зависит от высоты солнца над горизонтом, облачности и скорости ветра. Ночью, в пасмурную погоду, а также при ветре 12 м/с и более поправка равна нулю.
P - Атмосферное давление - приведенное к уровню моря атмосферное давление.
Po - Атмосферное давление - измеренное на уровне метеостанции атмосферное давление.
Tmin - Минимальная температура - минимум температуры воздуха на высоте 2 м над землей.
Tmax - Максимальная температура - максимум температуры воздуха на высоте 2 м над землей.
R - Количество осадков - Количество выпавших осадков за период времени, мм. При наведении курсора мыши на число - период времени, за который выпало указанное количество осадков.
R24 - Количество осадков - Количество выпавших осадков за 24 часа, мм.
S - Снежный покров - Высота снежного покрова, см. При наведении курсора мыши на число - состояние снежного покрова и степень покрытия местности в баллах.